Location: STAR School
(35.3054°N, 111.2976°W)
Time: 14:32:15
(UTC-07:00)

S-56A Canister/Altair - Visible Passes

Search period start: 26 May 2019 00:00
Search period end: 05 June 2019 00:00
Orbit: 633 x 2499 km, 38.9° (Epoch: 26 May)

Date Brightness Start Highest point End Pass type
(mag) Time Alt. Az. Time Alt. Az. Time Alt. Az.
26 May 8.0 01:37:03 81° NW 01:37:13 81° NNW 01:45:39 10° ENE visible
26 May 9.0 03:35:12 10° WNW 03:42:15 71° N 03:53:15 10° E visible
27 May 8.3 01:05:51 59° ENE 01:05:51 59° ENE 01:12:14 10° ENE visible
27 May 8.8 03:03:15 13° WNW 03:09:18 69° N 03:19:28 10° E visible
28 May 9.0 00:34:40 35° ENE 00:34:40 35° ENE 00:38:54 10° ENE visible
28 May 8.6 02:32:04 22° WNW 02:36:25 67° N 02:45:46 10° E visible
28 May 9.0 04:33:49 10° WNW 04:41:35 86° SSW 04:53:35 10° ESE visible
29 May 9.7 00:03:29 21° ENE 00:03:29 21° ENE 00:05:42 10° ENE visible
29 May 8.4 02:00:54 35° WNW 02:03:36 66° N 02:12:09 10° E visible
29 May 8.8 04:01:21 10° WNW 04:08:34 90° NE 04:19:50 10° ESE visible
29 May 10.2 23:32:21 11° ENE 23:32:21 11° ENE 23:32:35 10° ENE visible
30 May 8.2 01:29:45 55° NW 01:30:50 65° N 01:38:38 10° E visible
30 May 8.6 03:28:56 10° WNW 03:35:38 85° NNE 03:46:06 10° ESE visible
31 May 8.2 00:58:40 62° NNE 00:58:40 62° NNE 01:05:15 10° ENE visible
31 May 8.5 02:56:32 10° WNW 03:02:46 79° NNE 03:12:25 10° ESE visible
01 Jun 8.8 00:27:39 38° ENE 00:27:39 38° ENE 00:31:59 10° ENE visible
01 Jun 8.3 02:25:04 16° WNW 02:29:58 75° NNE 02:38:48 10° E visible
01 Jun 8.9 04:27:32 10° WNW 04:34:38 57° SSW 04:45:29 10° SE visible
01 Jun 9.5 21:45:15 10° SW 21:45:27 11° SW 21:45:27 11° SW visible
01 Jun 9.5 23:56:44 21° ENE 23:56:44 21° ENE 23:58:51 10° ENE visible
02 Jun 8.2 01:54:10 29° WNW 01:57:13 70° N 02:05:17 10° E visible
02 Jun 8.6 03:55:04 10° WNW 04:01:44 62° SSW 04:11:58 10° SE visible
02 Jun 7.9 21:12:55 10° SSW 21:16:21 30° SSE 21:16:21 30° SSE visible
02 Jun10.223:26:00ENE23:26:00ENE23:13:56Wvisible
03 Jun 8.1 01:23:26 54° NW 01:24:30 66° N 01:31:51 10° E visible
03 Jun 8.4 03:22:38 10° WNW 03:28:54 67° SSW 03:38:29 10° SE visible
03 Jun 8.1 20:40:35 10° SSW 20:44:28 26° SSE 20:47:10 15° E visible
03 Jun 9.1 22:43:21 10° WSW 22:55:31 - ENE 22:44:44 20° W visible
04 Jun 8.3 00:53:00 51° NE 00:53:00 51° NE 00:58:31 10° E visible
04 Jun 8.1 02:50:29 11° WNW 02:56:07 72° SSW 03:05:02 10° ESE visible
04 Jun 8.4 20:08:16 10° SSW 20:11:59 22° SSE 20:15:25 10° E visible
04 Jun 7.0 22:10:49 10° WSW 22:15:15 87° NNW 22:15:17 87° NNE visible
